�N����,����,�~����,�C��,���x,�C��,����,���ϕ���,�ő�u�ԕ���,�ő厞����,���˗�,�I�_���x,�n�����x,�ő啗���N��,DTYPE
"22/05/03","00:10",0.0,8.1,89.7,1010.4,307.4,2.1,3.3,322.9,0.00,6.6,15.3,"00:04:16",1
"22/05/03","00:20",0.0,7.9,90.0,1010.4,285.0,1.5,1.9,262.0,0.00,6.4,15.2,"00:13:12",1
"22/05/03","00:30",0.0,7.8,90.4,1010.4,289.6,1.5,2.5,316.4,0.00,6.4,15.2,"00:28:48",1
"22/05/03","00:40",0.0,7.7,90.7,1010.4,311.8,1.5,2.2,319.0,0.00,6.3,15.0,"00:30:16",1
"22/05/03","00:50",0.0,7.7,90.9,1010.4,303.0,1.3,1.9,324.2,0.00,6.3,15.1,"00:40:40",1
"22/05/03","01:00",0.0,7.7,91.3,1010.7,319.9,2.1,2.6,322.1,0.00,6.4,15.1,"00:59:04",1
"22/05/03","01:10",0.0,7.8,91.6,1010.4,319.2,2.5,3.4,326.9,0.00,6.6,15.0,"01:09:44",1
"22/05/03","01:20",0.0,7.8,91.8,1010.2,326.2,2.7,4.3,335.6,0.00,6.6,14.9,"01:15:20",1
"22/05/03","01:30",0.0,7.7,91.9,1010.7,321.9,2.7,3.7,336.9,0.00,6.5,15.0,"01:21:12",1
"22/05/03","01:40",0.0,7.6,92.1,1010.4,322.5,2.8,4.0,317.5,0.00,6.4,14.7,"01:39:04",1
"22/05/03","01:50",0.0,7.5,92.1,1010.7,307.9,2.3,3.9,333.4,0.00,6.3,14.9,"01:40:08",1
"22/05/03","02:00",0.0,7.4,92.1,1010.7,307.4,2.1,3.5,326.8,0.00,6.2,14.7,"01:56:24",1
"22/05/03","02:10",0.0,7.4,92.3,1010.7,313.3,2.3,4.9,343.1,0.00,6.3,14.7,"02:01:04",1
"22/05/03","02:20",0.0,7.3,92.4,1010.7,325.9,2.1,2.8,334.5,0.00,6.2,14.8,"02:10:56",1
"22/05/03","02:30",0.0,7.5,92.6,1010.7,323.9,2.5,3.4,336.5,0.00,6.4,14.7,"02:28:32",1
"22/05/03","02:40",0.0,7.6,92.7,1010.9,328.4,2.7,4.3,317.8,0.00,6.5,14.6,"02:31:28",1
"22/05/03","02:50",0.0,7.6,92.7,1010.9,320.0,1.8,3.1,318.7,0.00,6.5,14.4,"02:41:04",1
"22/05/03","03:00",0.0,7.2,92.8,1010.9,246.8,1.0,2.1,328.7,0.00,6.2,14.7,"02:50:48",1
"22/05/03","03:10",0.0,6.9,92.9,1011.2,290.2,1.5,2.0,317.0,0.00,5.9,14.5,"03:03:12",1
"22/05/03","03:20",0.0,6.8,93.1,1011.4,293.9,1.1,2.2,319.3,0.00,5.8,14.7,"03:11:12",1
"22/05/03","03:30",0.0,6.8,93.4,1011.6,318.4,2.2,3.1,307.1,0.00,5.9,14.4,"03:29:36",1
"22/05/03","03:40",0.0,6.8,93.4,1011.6,319.9,2.5,3.7,326.5,0.00,5.9,14.6,"03:35:52",1
"22/05/03","03:50",0.0,6.7,93.6,1011.9,317.4,1.8,2.6,331.1,0.00,5.8,14.4,"03:48:08",1
"22/05/03","04:00",0.0,6.9,93.9,1011.6,308.2,2.5,3.5,317.6,0.00,6.0,14.3,"03:53:12",1
"22/05/03","04:10",0.0,7.2,94.0,1011.6,320.7,2.3,3.3,329.1,0.00,6.3,14.1,"04:06:46",1
"22/05/03","04:20",0.0,7.2,93.9,1011.9,304.2,1.3,3.2,311.1,0.00,6.3,14.3,"04:11:28",1
"22/05/03","04:30",0.0,7.0,94.1,1011.9,271.7,1.0,1.8,307.7,0.00,6.2,14.3,"04:27:12",1
"22/05/03","04:40",0.0,7.0,94.3,1012.1,315.6,1.3,2.2,318.3,0.00,6.2,14.1,"04:32:40",1
"22/05/03","04:50",0.0,6.8,94.4,1012.1,290.2,1.1,1.8,309.7,0.00,6.0,14.1,"04:42:00",1
"22/05/03","05:00",0.0,6.5,94.6,1012.6,278.1,0.8,1.6,291.2,0.00,5.7,14.2,"04:59:04",1
"22/05/03","05:10",0.0,6.5,94.7,1012.1,301.7,1.3,2.0,314.2,0.00,5.8,14.2,"05:07:28",1
"22/05/03","05:20",0.0,6.7,94.8,1012.6,297.4,2.1,4.4,315.2,0.00,6.0,14.1,"05:17:36",1
"22/05/03","05:30",0.0,6.7,94.9,1012.3,273.9,2.0,2.9,310.7,0.00,6.0,14.2,"05:20:40",1
"22/05/03","05:40",0.0,6.6,94.9,1012.6,285.2,1.7,2.4,307.7,0.00,5.9,14.0,"05:34:56",1
"22/05/03","05:50",0.0,6.6,95.1,1012.6,313.8,0.8,1.7,269.9,0.00,5.9,14.2,"05:40:24",1
"22/05/03","06:00",0.0,6.5,95.2,1013.0,304.2,0.8,1.7,324.8,0.00,5.8,13.9,"05:59:36",1
"22/05/03","06:10",0.0,6.5,95.3,1013.0,289.1,1.5,2.0,318.3,0.00,5.8,13.9,"06:01:52",1
"22/05/03","06:20",0.0,6.7,95.4,1012.8,276.7,1.5,2.0,263.1,0.00,6.1,13.9,"06:17:36",1
"22/05/03","06:30",0.0,7.1,95.4,1013.3,293.5,1.7,2.5,258.8,0.01,6.5,13.8,"06:24:48",1
"22/05/03","06:40",0.0,7.5,95.3,1013.8,299.3,2.5,3.9,305.1,0.02,6.8,13.8,"06:38:16",1
"22/05/03","06:50",0.0,7.9,95.2,1013.5,314.9,3.0,4.4,301.5,0.04,7.2,13.7,"06:41:28",1
"22/05/03","07:00",0.0,8.8,94.9,1013.8,327.9,1.6,3.6,334.3,0.06,8.1,13.7,"06:51:04",1
"22/05/03","07:10",0.0,9.6,94.5,1014.2,298.2,0.6,2.4,342.1,0.08,8.8,13.7,"07:09:52",1
"22/05/03","07:20",0.0,10.3,94.2,1014.2,333.9,1.1,1.9,332.3,0.11,9.4,13.7,"07:10:16",1
"22/05/03","07:30",0.0,11.0,93.3,1014.2,320.9,0.7,1.9,314.4,0.11,10.0,13.9,"07:23:44",1
"22/05/03","07:40",0.0,11.1,92.2,1014.7,151.8,0.5,1.4,139.6,0.18,9.9,13.7,"07:38:16",1
"22/05/03","07:50",0.0,11.6,90.7,1015.2,152.3,0.7,2.0,149.2,0.22,10.2,13.5,"07:41:28",1
"22/05/03","08:00",0.0,12.0,88.4,1015.2,162.7,0.6,1.6,300.9,0.22,10.2,13.8,"07:54:32",1
"22/05/03","08:10",0.0,12.5,85.7,1015.2,132.2,0.5,1.1,129.5,0.20,10.2,13.6,"08:06:32",1
"22/05/03","08:20",0.0,12.6,82.8,1014.9,144.6,0.5,1.0,150.3,0.19,9.8,13.7,"08:14:56",1
"22/05/03","08:30",0.0,13.1,79.6,1014.9,288.9,1.5,4.2,311.4,0.29,9.7,13.9,"08:28:40",1
"22/05/03","08:40",0.0,13.2,76.0,1015.4,302.5,2.3,4.3,302.3,0.31,9.1,13.9,"08:38:08",1
"22/05/03","08:50",0.0,13.3,73.7,1015.2,305.4,2.6,4.4,337.3,0.27,8.7,13.6,"08:43:52",1
"22/05/03","09:00",0.0,13.5,72.8,1014.9,273.0,2.2,3.6,262.8,0.21,8.8,13.8,"08:50:48",1
"22/05/03","09:10",0.0,13.2,71.7,1014.9,295.9,2.8,5.6,306.8,0.20,8.2,14.0,"09:03:12",1
"22/05/03","09:20",0.0,13.9,69.5,1014.9,309.1,2.8,4.2,330.0,0.31,8.5,13.8,"09:11:44",1
"22/05/03","09:30",0.0,14.7,67.6,1015.2,290.2,2.1,4.5,321.9,0.43,8.8,13.9,"09:24:56",1
"22/05/03","09:40",0.0,13.8,66.7,1014.9,292.5,2.6,4.9,326.5,0.21,7.8,13.8,"09:37:44",1
"22/05/03","09:50",0.0,14.3,66.4,1014.9,325.8,2.7,4.2,322.0,0.36,8.2,14.0,"09:47:28",1
"22/05/03","10:00",0.0,15.1,61.4,1014.9,325.2,2.6,6.0,316.3,0.54,7.8,14.0,"09:55:44",1
"22/05/03","10:10",0.0,16.1,59.7,1014.7,333.5,2.3,6.5,355.7,0.56,8.3,14.2,"10:00:56",1
"22/05/03","10:20",0.0,16.8,56.1,1014.9,244.4,0.8,2.2,316.4,0.59,8.0,14.0,"10:10:08",1
"22/05/03","10:30",0.0,17.3,53.8,1014.5,1.3,1.6,4.4,350.5,0.60,7.9,14.1,"10:29:52",1
"22/05/03","10:40",0.0,17.5,54.4,1014.2,356.0,1.8,4.9,350.7,0.60,8.2,14.2,"10:32:32",1
"22/05/03","10:50",0.0,18.1,50.3,1014.2,9.8,1.1,3.5,11.8,0.59,7.7,14.5,"10:45:36",1
"22/05/03","11:00",0.0,18.1,48.1,1014.2,70.6,1.3,5.2,351.3,0.61,7.0,14.2,"10:50:02",1
"22/05/03","11:10",0.0,18.1,50.8,1014.0,342.0,1.6,3.3,343.0,0.61,7.8,14.3,"11:00:32",1
"22/05/03","11:20",0.0,17.8,51.8,1014.2,331.5,2.0,4.4,354.5,0.61,7.8,14.4,"11:10:40",1
"22/05/03","11:30",0.0,18.3,52.0,1014.2,304.3,1.5,4.2,330.7,0.62,8.3,14.5,"11:20:24",1
"22/05/03","11:40",0.0,18.2,50.6,1014.0,245.8,1.8,3.4,249.6,0.62,7.8,14.6,"11:39:52",1
"22/05/03","11:50",0.0,17.8,50.6,1014.0,239.8,2.2,4.9,230.6,0.64,7.5,14.5,"11:40:08",1
"22/05/03","12:00",0.0,18.4,49.5,1013.8,268.1,1.5,3.3,322.8,0.64,7.7,14.7,"11:58:40",1
"22/05/03","12:10",0.0,18.3,51.0,1013.8,266.0,2.2,4.3,291.1,0.57,8.0,14.7,"12:07:04",1
"22/05/03","12:20",0.0,18.1,49.8,1013.3,223.4,2.5,4.3,224.6,0.58,7.5,15.0,"12:12:56",1
"22/05/03","12:30",0.0,18.8,49.2,1013.3,236.4,1.5,3.2,181.0,0.50,8.0,15.0,"12:20:56",1
"22/05/03","12:40",0.0,19.0,48.5,1013.0,318.3,2.5,4.4,332.9,0.63,7.9,15.1,"12:36:00",1
"22/05/03","12:50",0.0,18.9,47.1,1013.3,302.5,2.3,4.4,305.6,0.62,7.4,15.3,"12:46:56",1
"22/05/03","13:00",0.0,19.0,45.1,1012.8,311.5,2.3,4.5,327.3,0.63,6.9,15.2,"12:56:40",1
"22/05/03","13:10",0.0,18.5,44.7,1012.6,251.5,1.8,4.1,243.1,0.31,6.3,15.2,"13:02:32",1
"22/05/03","13:20",0.0,19.8,46.2,1012.6,268.1,1.8,3.6,244.4,0.61,8.0,15.3,"13:13:52",1
"22/05/03","13:30",0.0,19.3,47.3,1012.8,311.1,3.4,6.0,337.0,0.56,7.9,15.5,"13:25:52",1
"22/05/03","13:40",0.0,19.8,46.0,1013.0,280.1,2.5,4.9,325.5,0.62,7.9,15.4,"13:39:44",1
"22/05/03","13:50",0.0,19.9,45.1,1013.0,297.7,2.7,6.0,349.1,0.60,7.7,15.6,"13:41:20",1
"22/05/03","14:00",0.0,20.3,45.0,1012.6,293.9,2.5,6.0,331.7,0.58,8.0,15.6,"13:51:36",1
"22/05/03","14:10",0.0,20.3,43.4,1012.8,267.7,2.5,4.2,331.6,0.58,7.5,15.9,"14:02:40",1
"22/05/03","14:20",0.0,20.6,42.4,1012.3,253.5,2.1,4.9,247.0,0.55,7.4,15.8,"14:19:04",1
"22/05/03","14:30",0.0,20.3,40.9,1012.3,261.6,2.7,5.0,315.5,0.54,6.6,15.7,"14:24:32",1
"22/05/03","14:40",0.0,20.6,40.4,1012.3,285.8,2.3,4.0,245.7,0.53,6.7,16.0,"14:31:04",1
"22/05/03","14:50",0.0,20.8,39.3,1012.3,281.9,2.3,6.3,336.9,0.46,6.5,16.1,"14:49:36",1
"22/05/03","15:00",0.0,20.8,40.5,1012.1,291.5,2.2,5.0,314.3,0.49,6.9,16.3,"14:50:24",1
"22/05/03","15:10",0.0,20.8,37.0,1012.1,278.9,2.6,5.2,325.2,0.47,5.6,16.1,"15:09:44",1
"22/05/03","15:20",0.0,20.7,36.0,1012.1,277.2,2.2,4.5,319.1,0.44,5.1,16.1,"15:16:16",1
"22/05/03","15:30",0.0,20.6,35.6,1012.1,255.1,2.5,5.1,242.0,0.42,4.9,16.2,"15:23:52",1
"22/05/03","15:40",0.0,20.8,35.0,1012.1,284.0,2.5,4.8,255.2,0.40,4.8,16.4,"15:33:52",1
"22/05/03","15:50",0.0,20.8,34.0,1011.9,259.0,2.3,4.7,238.8,0.37,4.4,16.5,"15:48:00",1
"22/05/03","16:00",0.0,20.9,32.8,1012.1,275.0,2.3,5.5,242.6,0.35,4.0,16.5,"15:53:52",1
"22/05/03","16:10",0.0,20.9,31.9,1011.6,269.8,2.3,4.7,241.2,0.33,3.6,16.6,"16:07:12",1
"22/05/03","16:20",0.0,21.1,32.5,1011.9,276.1,2.1,4.3,237.4,0.30,4.0,16.4,"16:19:12",1
"22/05/03","16:30",0.0,20.9,32.7,1011.6,271.9,2.5,4.3,243.2,0.28,4.0,16.5,"16:23:20",1
"22/05/03","16:40",0.0,21.1,32.1,1011.9,263.5,1.6,3.2,242.6,0.25,3.9,16.6,"16:30:24",1
"22/05/03","16:50",0.0,21.0,31.7,1011.9,258.6,2.1,3.7,252.3,0.23,3.6,16.6,"16:41:12",1
"22/05/03","17:00",0.0,21.0,31.1,1011.6,280.1,2.2,3.9,314.4,0.20,3.3,16.5,"16:53:36",1
"22/05/03","17:10",0.0,21.0,29.8,1011.9,270.1,1.7,2.9,257.5,0.18,2.7,16.7,"17:07:36",1
"22/05/03","17:20",0.0,20.9,29.0,1011.9,247.2,1.6,3.4,239.0,0.15,2.3,16.7,"17:18:24",1
"22/05/03","17:30",0.0,20.8,30.7,1011.6,256.4,1.8,3.1,243.5,0.13,3.0,16.9,"17:20:02",1
"22/05/03","17:40",0.0,20.6,30.8,1012.1,249.3,1.5,3.2,240.4,0.10,2.8,16.7,"17:30:08",1
"22/05/03","17:50",0.0,20.7,31.0,1011.9,275.5,0.8,2.0,243.1,0.08,3.0,16.6,"17:44:00",1
"22/05/03","18:00",0.0,20.5,31.8,1012.1,314.1,1.5,2.6,321.9,0.05,3.2,16.8,"17:53:12",1
"22/05/03","18:10",0.0,20.3,32.7,1012.1,319.2,1.3,2.1,332.6,0.01,3.4,16.8,"18:04:08",1
"22/05/03","18:20",0.0,20.0,38.6,1012.1,296.5,0.8,1.9,336.6,0.01,5.5,16.7,"18:10:40",1
"22/05/03","18:30",0.0,18.7,42.7,1012.1,316.4,1.5,2.4,326.4,0.00,5.8,16.9,"18:22:16",1
"22/05/03","18:40",0.0,17.6,46.2,1012.1,314.2,1.7,2.6,332.6,0.00,6.0,17.0,"18:36:00",1
"22/05/03","18:50",0.0,16.9,49.3,1012.8,283.2,1.5,2.4,335.9,0.00,6.3,16.7,"18:40:48",1
"22/05/03","19:00",0.0,16.6,50.2,1012.8,211.2,0.7,1.7,181.9,0.00,6.2,16.9,"18:52:32",1
"22/05/03","19:10",0.0,16.0,51.6,1013.0,295.3,1.7,3.5,317.7,0.00,6.1,16.9,"19:06:08",1
"22/05/03","19:20",0.0,15.3,55.5,1013.0,322.6,2.5,4.7,335.5,0.00,6.5,16.8,"19:16:02",1
"22/05/03","19:30",0.0,14.6,58.1,1013.5,327.1,1.8,3.3,313.1,0.00,6.5,16.9,"19:22:32",1
"22/05/03","19:40",0.0,13.9,60.2,1013.8,298.3,1.5,2.2,323.5,0.00,6.4,17.0,"19:30:48",1
"22/05/03","19:50",0.0,13.6,62.1,1013.8,284.7,1.6,2.6,301.9,0.00,6.5,16.8,"19:48:26",1
"22/05/03","20:00",0.0,13.3,63.6,1013.8,319.4,2.0,3.1,316.0,0.00,6.6,16.7,"19:53:44",1
"22/05/03","20:10",0.0,12.9,65.7,1014.2,303.9,1.8,2.6,334.2,0.00,6.7,16.8,"20:05:28",1
"22/05/03","20:20",0.0,12.7,67.3,1014.2,316.6,2.1,2.8,316.8,0.00,6.8,16.6,"20:12:34",1
"22/05/03","20:30",0.0,12.5,68.4,1014.5,289.3,1.5,2.0,314.7,0.00,6.9,16.7,"20:20:10",1
"22/05/03","20:40",0.0,12.2,69.4,1014.2,299.0,1.8,2.5,288.8,0.00,6.8,16.5,"20:33:28",1
"22/05/03","20:50",0.0,12.1,70.3,1014.5,298.6,2.1,2.7,313.0,0.00,6.9,16.4,"20:41:48",1
"22/05/03","21:00",0.0,12.1,71.0,1014.7,306.4,2.1,3.2,315.5,0.00,7.0,16.3,"20:52:30",1
"22/05/03","21:10",0.0,11.8,71.7,1014.7,300.5,1.7,2.6,309.0,0.00,6.9,16.3,"21:09:12",1
"22/05/03","21:20",0.0,11.6,72.5,1014.5,318.6,2.1,2.7,313.1,0.00,6.9,16.3,"21:16:54",1
"22/05/03","21:30",0.0,11.6,73.4,1014.7,288.7,1.7,2.2,306.6,0.00,7.0,16.3,"21:26:12",1
"22/05/03","21:40",0.0,11.5,74.0,1014.9,297.9,1.7,2.6,307.5,0.00,7.1,16.5,"21:33:30",1
"22/05/03","21:50",0.0,11.5,74.5,1015.2,294.5,1.8,2.6,306.0,0.00,7.2,16.2,"21:43:44",1
"22/05/03","22:00",0.0,11.2,75.2,1014.9,317.9,1.8,2.2,298.6,0.00,7.0,16.4,"21:58:06",1
"22/05/03","22:10",0.0,11.1,76.0,1014.9,290.9,2.0,3.5,317.7,0.00,7.1,16.1,"22:04:48",1
"22/05/03","22:20",0.0,11.2,76.2,1015.4,288.4,1.8,2.8,269.9,0.00,7.2,16.2,"22:16:40",1
"22/05/03","22:30",0.0,10.9,76.9,1015.6,333.0,2.0,2.5,333.4,0.00,7.1,16.0,"22:26:00",1
"22/05/03","22:40",0.0,10.2,78.4,1015.4,321.2,1.6,2.0,326.2,0.00,6.7,15.9,"22:31:52",1
"22/05/03","22:50",0.0,10.2,79.7,1015.4,332.2,1.6,2.0,348.7,0.00,6.9,16.0,"22:40:48",1
"22/05/03","23:00",0.0,10.1,80.7,1015.6,276.4,1.5,1.9,265.4,0.00,7.0,15.7,"22:58:40",1
"22/05/03","23:10",0.0,10.2,81.2,1015.4,313.5,1.8,2.5,315.8,0.00,7.2,15.8,"23:02:48",1
"22/05/03","23:20",0.0,9.8,81.7,1015.4,323.3,1.7,2.2,325.7,0.00,6.9,15.8,"23:11:20",1
"22/05/03","23:30",0.0,9.6,82.5,1015.4,329.0,1.8,2.4,329.4,0.00,6.8,15.8,"23:26:48",1
"22/05/03","23:40",0.0,9.6,83.0,1015.6,298.6,1.6,2.4,314.5,0.00,6.9,15.8,"23:37:44",1
"22/05/03","23:50",0.0,9.8,83.3,1015.6,315.4,2.1,3.1,324.3,0.00,7.1,15.4,"23:44:00",1
"22/05/03","24:00",0.0,9.6,83.3,1016.1,330.6,1.7,2.4,314.3,0.00,7.0,15.7,"23:56:48",1
